DW1743 Weather Reports


Display with metric or nautical units.
time (UTC)temp
F
wind
direction
speed
MPH
gust
MPH
rain 1hr
in
rain 24hr
in
rain mn
in
humidity
%
barometer
mb
20201027234643 51 212 0.0 0.0 0.00 0.00 0.00 70 1004.4
20201027233224 51 206 0.0 0.0 0.00 0.00 0.00 72 1004.4
20201027231630 50 206 0.0 0.0 0.00 0.00 0.00 73 1004.3
20201027230137 50 209 0.0 0.0 0.00 0.00 0.00 75 1004.0
20201027224633 50 206 0.0 0.0 0.00 0.00 0.00 76 1003.8
20201027223118 50 215 0.0 0.0 0.00 0.00 0.00 76 1003.7
20201027221711 51 220 0.0 0.0 0.00 0.00 0.00 77 1003.7
20201027220057 51 220 0.0 0.0 0.00 0.00 0.00 76 1003.6
20201027214636 51 187 0.0 0.0 0.00 0.00 0.00 76 1003.4
20201027213148 52 175 0.0 0.0 0.00 0.00 0.00 76 1003.2
20201027211715 52 172 0.0 0.0 0.00 0.00 0.00 76 1002.9
20201027210135 53 193 0.0 0.0 0.00 0.00 0.00 75 1002.8
20201027204641 53 242 0.0 0.0 0.00 0.00 0.00 75 1002.6
20201027203152 54 241 0.0 0.0 0.00 0.00 0.00 74 1002.5
20201027201635 54 257 0.0 0.0 0.00 0.00 0.00 73 1002.3
20201027200200 54 237 0.0 0.0 0.00 0.00 0.00 71 1002.0
20201027194615 54 263 0.0 0.0 0.00 0.00 0.00 68 1001.8
20201027193226 54 263 0.0 0.0 0.00 0.00 0.00 66 1001.5
20201027191625 54 229 0.0 0.0 0.00 0.00 0.00 65 1001.2
20201027190054 54 192 0.0 0.0 0.00 0.00 0.00 66 1000.9
20201027184705 54 223 0.0 0.0 0.00 0.00 0.00 67 1000.8
20201027183132 54 213 0.0 0.0 0.00 0.00 0.00 68 1000.6
20201027181626 54 236 0.0 0.0 0.00 0.00 0.00 70 1000.4
20201027180039 53 186 0.0 0.0 0.00 0.00 0.00 72 999.7
20201027174538 53 217 0.0 0.0 0.00 0.00 0.00 72 999.5
20201027173131 53 207 0.0 0.0 0.00 0.00 0.00 73 999.6
20201027171555 53 154 0.0 0.0 0.00 0.00 0.00 74 999.4
20201027170131 53 155 0.0 0.0 0.00 0.00 0.00 75 999.5
20201027164538 53 201 0.0 0.0 0.00 0.00 0.00 76 999.5
20201027163141 53 192 0.0 0.0 0.00 0.00 0.00 77 999.6
20201027161528 53 174 0.0 0.0 0.00 0.00 0.00 77 999.6
20201027160103 53 178 0.0 0.0 0.00 0.00 0.00 77 999.7
20201027154539 52 196 0.0 0.0 0.00 0.00 0.00 78 999.8
20201027153100 52 215 0.0 0.0 0.00 0.00 0.00 79 1000.0
20201027151527 52 209 0.0 0.0 0.00 0.00 0.00 78 1000.3
20201027150036 52 161 0.0 0.0 0.00 0.00 0.00 78 1000.5
20201027144516 52 198 0.0 0.0 0.00 0.00 0.00 77 1000.7
20201027143357 52 169 0.0 0.0 0.00 0.00 0.00 78 1000.9
20201027140154 51 178 0.0 0.0 0.00 0.00 0.00 79 1001.3
20201027134647 51 169 0.0 0.0 0.00 0.00 0.00 80 1001.3
20201027133222 51 175 0.0 0.0 0.00 0.00 0.00 80 1001.4
20201027131637 51 170 0.0 0.0 0.00 0.00 0.00 81 1001.7
20201027130122 51 157 0.0 0.0 0.00 0.00 0.00 81 1002.1
20201027124619 51 165 0.0 0.0 0.00 0.00 0.00 82 1002.5
20201027123147 51 148 0.0 0.0 0.00 0.00 0.00 82 1002.9
20201027121559 52 200 0.0 0.0 0.00 0.00 0.00 83 1003.1
20201027120122 51 192 0.0 0.0 0.00 0.00 0.00 83 1003.4
20201027114634 51 160 0.0 0.0 0.00 0.00 0.00 82 1003.5
20201027113116 51 174 0.0 0.0 0.00 0.00 0.00 82 1003.9
20201027111708 50 190 0.0 0.0 0.00 0.00 0.00 82 1004.2
20201027110112 50 231 0.0 0.0 0.00 0.00 0.00 82 1004.4
20201027104542 50 215 0.0 0.0 0.00 0.00 0.00 82 1004.5
20201027103110 49 190 0.0 0.0 0.00 0.00 0.00 82 1004.6
20201027101555 49 174 0.0 0.0 0.00 0.00 0.00 82 1004.7
20201027100029 49 171 0.0 0.0 0.00 0.00 0.00 82 1004.6
20201027094525 49 228 0.0 0.0 0.00 0.00 0.00 82 1004.7
20201027093112 49 199 0.0 0.0 0.00 0.00 0.00 82 1004.8
20201027091523 48 201 0.0 0.0 0.00 0.00 0.00 82 1004.8
20201027090038 48 207 0.0 0.0 0.00 0.00 0.00 82 1004.8
20201027084610 48 179 0.0 0.0 0.00 0.00 0.00 81 1004.9
20201027083030 48 219 0.0 0.0 0.00 0.00 0.00 80 1004.9
20201027081608 48 182 0.0 0.0 0.00 0.00 0.00 79 1005.0
20201027080021 47 197 0.0 0.0 0.00 0.00 0.00 78 1005.1
20201027074537 47 192 0.0 0.0 0.00 0.00 0.00 78 1005.1
20201027073023 47 200 0.0 0.0 0.00 0.00 0.00 77 1005.1
20201027071527 47 242 0.0 0.0 0.00 0.00 0.00 77 1004.9
20201027070022 47 202 0.0 0.0 0.00 0.00 0.00 76 1004.8
20201027063132 47 202 0.0 0.0 0.00 0.00 0.00 74 1004.6
20201027061715 47 204 0.0 0.0 0.00 0.00 0.00 73 1004.6
20201027060258 47 172 0.0 0.0 0.00 0.00 0.00 72 1004.7
20201027054835 47 213 0.0 0.0 0.00 0.00 0.00 72 1004.6
20201027053126 46 212 0.0 0.0 0.00 0.00 0.00 73 1004.7
20201027051752 46 217 0.0 0.0 0.00 0.00 0.00 73 1004.7
20201027050125 46 213 0.0 0.0 0.00 0.00 0.00 73 1004.6
20201027044654 47 214 0.0 0.0 0.00 0.00 0.00 72 1004.5
20201027043139 47 277 0.0 0.0 0.00 0.00 0.00 71 1004.4
20201027041812 47 207 0.0 0.0 0.00 0.00 0.00 71 1004.3
20201027040126 47 214 0.0 0.0 0.00 0.00 0.00 71 1004.3
20201027034725 47 198 0.0 0.0 0.00 0.00 0.00 72 1004.3
20201027033257 47 193 0.0 0.0 0.00 0.00 0.00 72 1004.4
20201027031704 47 224 0.0 0.0 0.00 0.00 0.00 72 1004.3
20201027030105 47 211 0.0 0.0 0.00 0.00 0.00 71 1004.3
20201027024730 47 203 0.0 0.0 0.00 0.00 0.00 71 1004.3
20201027023318 48 219 0.0 0.0 0.00 0.00 0.00 71 1004.4
20201027021617 47 217 0.0 0.0 0.00 0.00 0.00 72 1004.5
20201027020122 47 209 0.0 0.0 0.00 0.00 0.00 73 1004.5
20201027014640 47 200 0.0 0.0 0.00 0.00 0.00 75 1004.6
20201027013132 47 206 0.0 0.0 0.00 0.00 0.00 75 1004.7
20201027011625 47 202 0.0 0.0 0.00 0.00 0.00 75 1004.7
20201027010048 47 240 0.0 0.0 0.00 0.00 0.00 76 1004.8
20201027004630 47 254 0.0 0.0 0.00 0.00 0.00 76 1005.0
20201027003129 47 242 0.0 0.0 0.00 0.00 0.00 77 1004.7
20201027001554 46 223 0.0 0.0 0.00 0.00 0.00 78 1004.7
20201027000053 46 233 0.0 0.0 0.00 0.00 0.00 80 1004.5